Weather in Gnezdovo

Russia / Tver Oblast     57°24′46″N   35°30′01″E
temp.,
°C
wind,
m/s
gust,
m/s
humid.,
%
clouds,
%
prec.,
mm/h
press.,
hPa
HPBL,
m
21 june, mon
mon2100:00+20wsw268938 0.0 1019115
03:00+20sw249069 0.1 1020103
06:00+21sw248619 0.0 1020124
09:00+27ssw116024 0.0 1020578
12:00+29s224997 0.0 10201697
15:00+31s22406 0.0 10192348
18:00+30s344964 0.0 10181061
21:00+21ssw238335 0.4 101949
22 june, tue
tue2200:00+18sw1287100 0.5 102014
03:00+17s228712 0.5 102015
06:00+19s24878 0.0 1020107
09:00+26s34595 0.0 1020581
12:00+30sse34435 0.0 10201335
15:00+31s353941 0.0 10191791
18:00+30s35455 0.0 10181090
21:00+23ssw2476100 0.0 101970
23 june, wed
wed2300:00+21ssw2874100 0.0 1019130
03:00+19ssw2783100 0.0 1020127
06:00+21ssw278383 0.0 1021195
09:00+27ssw245865 0.0 1021525
12:00+31ssw454064 0.0 10201646
15:00+33ssw35315 0.0 10192281
18:00+32ssw35395 0.0 1019758
21:00+24ssw366983 0.0 1019103
24 june, thu
thu2400:00+21ssw267966 0.0 1020105
03:00+20ssw26825 0.0 1020116
06:00+22sw268020 0.0 1019159
09:00+28sw24545 0.0 1019534
12:00+32sw34395 0.0 10182158
15:00+34ssw34323 0.0 10172867
18:00+32s57400 0.0 10151232
21:00+26s41161100 0.0 1015353
25 june, fri
fri2500:00+18e1194100 2.5 101712
03:00+17wsw2294100 2.5 101731
06:00+19w13933 0.0 1017117
09:00+25nw12655 0.0 1017601
12:00+29w23475 0.0 10161386
15:00+31w244013 0.0 10152302
18:00+29sw3349100 0.1 1014827
21:00+18sw2393100 4.5 101561